Charlottetown, Prince Edward Island

8:32 AM AST on November 18, 2017 (GMT -0400)
Charlottetown

Weather History for CYYG - February, 2014

Change the Weather History Date:

Friday, February 28, 2014

  Actual Average Record
Temperature  
Mean Temperature 14 °F -  
Max Temperature 19 °F 33 °F 46 °F (2002)
Min Temperature 9 °F 18 °F -4 °F (2011)
Degree Days  
Heating Degree Days 51    
Moisture  
Dew Point 4 °F    
Average Humidity 63    
Maximum Humidity 93    
Minimum Humidity 29    
Precipitation  
Precipitation 0.00 in 0.12 in - ()
Sea Level Pressure  
Sea Level Pressure 29.90 in    
Wind  
Wind Speed 9 mph ()    
Max Wind Speed 18 mph    
Max Gust Speed 29 mph    
Visibility 13.7 miles    
Events Snow    
Averages and records for this station are not official NWS values.
T = Trace of Precipitation, MM = Missing Value Source: Averaged Metar Reports

Daily Weather History Graph

Daily Weather History Graph

Search for Another Location

Airport or City:

Trip Planner

Search our weather history database for the weather conditions in past years. The results will help you decide how hot, cold, wet, or windy it might be!

Date:

Astronomy

Feb. 28, 2014 Rise Set
Actual Time 6:53 AM AST 5:57 PM AST
Civil Twilight 6:23 AM AST 6:27 PM AST
Nautical Twilight 5:48 AM AST 7:02 PM AST
Astronomical Twilight 5:13 AM AST 7:37 PM AST
Moon 6:06 AM AST (2/28) 5:29 PM AST (2/28)
Length of Visible Light 12h 04m
Length of Day
11h 03m
Waning Crescent, 1% of the Moon is Illuminated
Feb 28
Waning Crescent
Mar 1
New
Mar 8
First Quarter
Mar 16
Full
Mar 23
Last Quarter

Hourly Weather History & Observations

Time (AST) Temp. Windchill Dew Point Humidity Pressure Visibility Wind Dir Wind Speed Gust Speed Precip Events Conditions
12:00 AM 15.8 °F 7.2 °F 12.2 °F 86% 29.63 in 12.0 mi West 5.8 mph - N/A Snow Light Snow Showers
1:00 AM 15.8 °F 6.1 °F 14.0 °F 93% 29.63 in 6.0 mi WNW 6.9 mph - N/A Snow Light Snow Showers
2:00 AM 16 °F - 13 °F 83% 29.65 in 4 mi WNW 6.9 mph - - Snow Light Snow Showers
2:00 AM 15.8 °F 5.1 °F 12.2 °F 86% 29.65 in 4.0 mi WNW 8.1 mph - N/A Snow Light Snow Showers
3:00 AM 15.8 °F 3.4 °F 12.2 °F 86% 29.66 in 10.0 mi WNW 10.4 mph - N/A Snow Light Snow Showers
4:00 AM 14.0 °F 1.2 °F 10.4 °F 86% 29.68 in 15.0 mi WNW 10.4 mph - N/A Snow Light Snow Showers
4:40 AM 14.0 °F 2.9 °F 8.6 °F 79% 29.70 in 15.0 mi WNW 8.1 mph - N/A   Overcast
5:00 AM 14.0 °F 2.9 °F 6.8 °F 73% 29.70 in 15.0 mi WNW 8.1 mph - N/A   Overcast
6:00 AM 12.2 °F 0.7 °F 5.0 °F 73% 29.75 in 15.0 mi West 8.1 mph - N/A   Scattered Clouds
7:00 AM 10.4 °F -0.4 °F 5.0 °F 79% 29.77 in 15.0 mi West 6.9 mph - N/A   Partly Cloudy
8:00 AM 11 °F - 2 °F 56% 29.78 in 15 mi WNW 4.6 mph - -   Partly Cloudy
8:00 AM 10.4 °F 2.2 °F 3.2 °F 73% 29.78 in 15.0 mi WNW 4.6 mph - N/A   Partly Cloudy
9:00 AM 14.0 °F 1.2 °F 6.8 °F 73% 29.82 in 15.0 mi WSW 10.4 mph - N/A   Clear
10:00 AM 15.8 °F 5.1 °F 6.8 °F 68% 29.83 in 15.0 mi WSW 8.1 mph - N/A   Scattered Clouds
11:00 AM 15.8 °F 0.9 °F 6.8 °F 68% 29.87 in 15.0 mi WSW 15.0 mph 23.0 mph N/A   Mostly Cloudy
12:00 PM 15.8 °F -0.6 °F 6.8 °F 68% 29.89 in 15.0 mi West 18.4 mph 26.5 mph N/A   Mostly Cloudy
1:00 PM 17.6 °F 1.7 °F 5.0 °F 58% 29.91 in 15.0 mi West 18.4 mph 26.5 mph N/A   Scattered Clouds
2:00 PM 17 °F - 5 °F 44% 29.94 in 15 mi West 15.0 mph - -   Partly Cloudy
2:00 PM 17.6 °F 2.2 °F 5.0 °F 58% 29.94 in 15.0 mi WSW 17.3 mph 25.3 mph N/A   Scattered Clouds
3:00 PM 17.6 °F 3.2 °F 5.0 °F 58% 29.97 in 15.0 mi West 15.0 mph 27.6 mph N/A Snow Low Drifting Snow
4:00 PM 19.4 °F 4.5 °F 1.4 °F 46% 30.01 in 15.0 mi West 17.3 mph 28.8 mph N/A Snow Low Drifting Snow
5:00 PM 17.6 °F 2.2 °F -0.4 °F 45% 30.05 in 15.0 mi West 17.3 mph 26.5 mph N/A   Partly Cloudy
6:00 PM 17.6 °F 4.3 °F -0.4 °F 45% 30.09 in 15.0 mi West 12.7 mph 23.0 mph N/A   Partly Cloudy
7:00 PM 15.8 °F 4.2 °F -2.2 °F 45% 30.15 in 15.0 mi West 9.2 mph 18.4 mph N/A   Partly Cloudy
8:00 PM 15 °F - -3 °F 29% 30.18 in 15 mi West 12.7 mph - -  
8:00 PM 15.8 °F 2.1 °F -2.2 °F 45% 30.18 in 15.0 mi West 12.7 mph 19.6 mph N/A   Clear
9:00 PM 14.0 °F 2.0 °F -5.8 °F 41% 30.22 in 15.0 mi West 9.2 mph - N/A   Clear
10:00 PM 14.0 °F 0.5 °F -5.8 °F 41% 30.25 in 15.0 mi West 11.5 mph 20.7 mph N/A   Clear
11:00 PM 12.2 °F 0.7 °F -5.8 °F 45% 30.29 in 15.0 mi West 8.1 mph - N/A   Clear